Regional Weather Roundup
Issued by NWS Mobile, AL

Home | Current Version | Previous Version | Text Only | Print | Product List | Glossary On
Versions: 1 2 3 4 5 6 7 8 9 10 11 12 13 14 15 16 17 18 19 20 21 22 23 24 25 26 27 28
000
ASUS44 KMOB 270713
RWRMOB
REGIONAL WEATHER ROUNDUP
NATIONAL WEATHER SERVICE MOBILE AL
200 AM CDT THU JUL 27 2017

NOTE: "FAIR" INDICATES FEW OR NO CLOUDS BELOW 12,000 FEET WITH NO
      SIGNIFICANT WEATHER AND/OR OBSTRUCTIONS TO VISIBILITY.

  * THESE STATIONS ARE PART OF THE UNIVERSITY OF SOUTH ALABAMA
    MESONET AND ARE NOT UNDER NWS OR FAA QUALITY CONTROL.

ALZ061>064-270800-
COASTAL ALABAMA

CITY           SKY/WX    TMP DP  RH WIND       PRES   REMARKS
MOBILE REG APT CLEAR     77  73  87 SW3       30.05F
BROOKLEY FIELD CLEAR     76  74  93 SW3       30.04F
USA CAMPUS*      N/A     73  72  94 CALM      30.04F
DOG RIVER*     NOT AVBL


CITY           SKY/WX    TMP DP  RH WIND       PRES   REMARKS
GULF SHORES    CLEAR     73  73 100 W10       30.03S

$$

ALZ051>060-270800-
INTERIOR SOUTHWEST AND SOUTH CENTRAL ALABAMA

CITY           SKY/WX    TMP DP  RH WIND       PRES   REMARKS
GREENVILLE     CLEAR     73  69  87 CALM      30.03F
EVERGREEN      CLEAR     73  71  93 CALM      30.03F FOG
ATMORE*        NOT AVBL
ANDALUSIA/OPP  PTCLDY    75  71  87 CALM      30.03F
ANDALUSIA*       N/A     72  70  94 CALM      30.04F
FLORALA APT    CLEAR     73  69  87 CALM      30.05F
FLORALA*         N/A     73  72  94 CALM      30.73F

$$

FLZ001>006-270800-
WESTERN FLORIDA PANHANDLE

CITY           SKY/WX    TMP DP  RH WIND       PRES   REMARKS
PENSACOLA      CLOUDY    77  70  79 N6        30.02F
NAS PENSACOLA  PTCLDY    75  72  90 NW3       30.02F
MILTON         PTCLDY    73  72  96 NW3       30.03F
WHTNG S FIELD  PTCLDY    75  73  93 CALM      30.02F


CITY           SKY/WX    TMP DP  RH WIND       PRES   REMARKS
JAY*             N/A     75  73  94 NW2       30.03F
DUKE FIELD     PTCLDY    73  72  94 CALM        N/A
CRESTVIEW      PTCLDY    74  72  93 NW6       30.04F
VALPARAISO     PTCLDY    75  70  86 N5        30.01F
DESTIN         MOCLDY    80  72  76 N6        30.01F

$$

MSZ076-079-270800-
INTERIOR SOUTHEAST MISSISSIPPI

CITY           SKY/WX    TMP DP  RH WIND       PRES   REMARKS
LEAKESVILLE*   NOT AVBL
AGRICOLA*        N/A     75  75 100 CALM      30.03F

$$

MARINE OBSERVATIONS

STATION/POSITION TIME  TEMP    WIND        PRES    WAVE
                       AIR SEA DIR/SP/G            HT/PER
                 (UTC) (F)     (DEG/KT/KT) (MB)    (FT/S)
PASCAGOULA       0648          300/  1/  2 1017.0F
PETIT BOIS ISLND 0648          300/  3/  4 1017.8F
GRAND BAY        0545   80     320/  1     1019.0S
KATRINA CUT      0630   83     220/  2     1017.3S
CEDAR POINT      0630   83     360/  2     1016.9F
E DAUPHIN ISLAND 0600   83      CALM  /  2 1017.1F
MIDDLE BAY LIGHT 0630   82     290/  2     1017.3S
USCG MOBILE BAY  0648          280/  1/  2 1017.6F
STATE DOCKS      0642                      1016.9F
MEAHER PARK      0630   78     130/  1     1016.9F
WEEKS BAY        0545   72                   N/A
FORT MORGAN      0648          320/  3/  4   N/A
12 S ORANGE BCH  0550   81 85  340/  6/  8 1016.8F   1
PENSACOLA BAY    0642                      1016.7F
64 S DAUPHIN ISL 0650   85 86  320/  8/  8 1017.0F   1
67 S FORT MORGAN 0630   83        CALM     1016.9F

$$

SELECTED LOCATIONS ACROSS THE REGION

CITY           SKY/WX    TMP DP  RH WIND       PRES   REMARKS
NEW ORLEANS    PTCLDY    78  76  93 W5        30.04F
GULFPORT       CLEAR     75  75 100 NW3       30.03F
PASCAGOULA AP  CLEAR     75  73  93 CALM      30.03F FOG
PASCAGOULA*      N/A    N/A N/A N/A CALM        N/A
HATTIESBURG    CLEAR     76  75  97 CALM      30.04F
LAUREL         CLEAR     77  75  93 W3        30.06F
MERIDIAN       CLEAR     78  76  93 CALM      30.04F
JACKSON        CLEAR     73  71  93 CALM      30.06S
MONTGOMERY     CLEAR     75  70  84 CALM      30.03F
TROY           PTCLDY    74  73  97 CALM      30.05F
ASHFORD*         N/A     72  70  94 CALM      30.04F
DOTHAN         CLEAR     74  73  97 NW5       30.06F
PANAMA CITY    MOCLDY    76  72  87 NW3       30.01F

$$





USA.gov is the U.S. government's official web portal to all federal, state and local government web resources and services.